Theta_e
348 349 351 356 357 360 361 361 363 364 364 365 364 364 365 366 366 366 367 367 367 368 369 369 369 368 368 368 368 367 367 367 366 366 366 365 365 364 363 362 362 361 362 361 361 362 362 362 363 363 362 361 360 360 358 359 359 359 358 358 358 359 358 358 358 358 357 356 356 355 357 357 356 358 359 358 357 357 358 359 358 354 352 353 355
348 351 351 355 357 358 361 362 363 364 365 364 364 364 365 365 365 366 366 366 367 368 368 369 368 368 368 367 367 367 367 366 366 365 365 364 364 364 364 363 362 362 361 361 362 362 362 361 361 362 362 361 359 360 359 359 359 359 358 358 358 359 358 358 358 357 357 356 356 355 355 355 355 355 356 357 357 357 358 358 357 353 352 356 356
351 352 353 357 357 359 362 362 363 364 364 364 364 365 364 365 365 365 365 366 366 367 368 368 368 368 367 367 367 367 366 366 365 365 364 364 363 363 362 362 361 360 360 360 362 362 361 361 362 362 362 361 360 358 360 360 359 359 359 357 359 359 358 357 357 357 357 357 356 356 356 357 357 357 356 357 356 357 358 358 357 357 352 356 356
351 352 352 356 358 358 364 363 363 363 363 364 364 364 364 365 365 365 366 367 367 368 368 368 368 367 367 367 367 366 365 365 364 364 363 363 362 362 361 361 361 361 361 361 362 361 361 360 361 360 361 360 360 359 359 360 359 359 358 357 358 358 359 358 359 359 358 358 358 358 357 350 353 356 357 356 356 357 358 357 358 357 357 355 356
352 353 352 356 357 359 362 363 363 363 363 363 363 364 364 364 364 365 366 367 368 368 367 367 366 367 366 366 366 366 364 364 363 363 362 362 362 362 362 362 362 362 361 361 362 362 361 360 360 360 360 359 359 358 359 359 359 358 358 359 358 359 359 359 359 359 358 358 357 357 347 349 350 356 356 356 356 358 358 357 357 356 357 356 355
352 353 354 355 356 359 363 362 362 363 363 363 364 364 364 364 365 366 367 367 368 367 367 366 366 366 366 366 366 366 364 363 363 363 362 362 363 363 362 362 361 361 362 362 362 361 361 360 360 359 359 359 359 356 359 359 359 359 358 357 357 358 359 359 358 358 357 357 357 350 346 350 353 352 355 356 356 358 358 357 358 355 354 355 356
352 353 353 354 356 359 362 362 361 363 363 363 364 364 364 364 364 366 367 367 367 367 366 366 366 366 365 365 365 365 363 363 363 363 363 363 362 362 361 361 361 361 362 361 361 361 361 361 360 360 360 356 357 356 356 357 356 355 353 356 357 359 359 359 358 358 359 355 343 345 345 349 352 351 354 354 358 359 358 357 358 358 356 355 356
353 353 353 355 356 360 363 363 362 363 363 363 364 364 364 364 365 366 366 367 367 366 366 365 365 365 365 365 365 364 364 363 364 364 363 363 362 361 361 361 361 361 361 360 360 360 360 360 360 360 360 357 357 357 357 358 357 354 351 355 358 358 360 359 359 359 358 346 345 345 346 349 350 351 355 355 357 359 358 359 358 358 357 357 355
352 354 355 356 357 363 363 361 362 363 362 363 364 364 364 364 365 365 366 366 366 366 365 365 365 365 365 365 364 364 364 364 364 364 363 363 362 361 361 361 361 361 361 361 361 361 361 361 361 361 359 358 359 358 358 359 357 356 353 356 358 358 358 360 358 360 355 348 347 345 345 348 350 351 355 353 354 353 356 358 357 358 357 357 358
353 354 355 355 358 363 362 362 362 362 363 363 363 364 364 365 365 365 366 366 366 366 365 365 365 365 364 364 363 363 363 364 364 363 363 362 362 361 361 361 362 361 361 361 362 362 362 362 362 361 361 358 359 360 358 360 359 359 358 357 358 359 358 360 360 358 348 349 347 346 348 360 350 351 355 356 354 355 357 358 357 356 356 358 358
353 354 355 356 359 364 363 362 363 362 362 363 364 364 364 365 365 365 365 365 366 365 365 365 365 364 365 364 364 364 364 364 363 363 362 362 362 362 362 362 361 361 361 361 361 361 361 361 361 361 360 360 358 357 359 358 360 358 357 358 357 357 359 360 359 350 350 348 345 344 357 357 348 350 357 357 357 357 356 356 357 359 358 358 357
353 353 354 356 362 363 363 362 362 362 363 363 364 364 365 365 365 365 365 365 365 365 364 364 365 364 365 365 364 364 363 363 363 363 362 361 362 362 361 360 359 359 359 360 360 361 361 361 361 360 360 359 360 359 359 359 359 358 358 357 358 358 358 360 352 349 347 346 346 347 350 351 349 354 357 358 357 357 357 357 358 358 358 357 357
352 353 354 357 359 361 362 364 362 363 363 364 364 365 365 365 365 365 365 365 365 365 364 364 364 364 364 364 364 364 363 363 363 362 361 362 362 361 360 359 359 359 359 360 360 361 362 362 361 361 361 360 359 359 359 358 358 358 356 358 358 359 360 358 349 348 349 347 349 349 348 348 351 357 357 357 356 357 356 355 356 357 358 357 357
352 353 354 357 359 364 364 364 363 363 364 363 363 364 364 364 365 365 365 365 365 365 364 364 364 364 364 364 364 363 363 363 362 362 362 362 361 361 360 360 359 358 358 360 361 361 362 362 362 361 360 361 360 359 359 359 359 360 360 359 359 358 359 358 357 351 353 350 352 348 348 352 350 358 357 357 357 357 357 357 357 356 357 357 357
351 353 355 357 359 361 366 365 364 364 364 364 363 363 364 364 364 365 365 365 365 365 365 364 364 364 364 364 363 363 363 363 362 362 362 362 361 361 360 360 358 358 358 360 361 362 362 362 362 363 362 362 361 360 360 359 359 360 360 360 359 359 360 353 353 351 353 353 351 353 348 349 358 358 357 357 357 357 357 357 357 356 357 357 357
353 353 356 357 359 361 362 365 364 364 365 365 364 363 364 364 364 365 365 365 365 365 364 364 364 364 364 364 364 364 363 363 363 362 362 362 361 361 360 360 360 359 360 360 361 362 361 361 362 362 362 362 361 361 360 360 359 360 361 360 360 359 359 357 351 349 349 352 351 352 348 351 358 357 357 356 358 357 356 356 357 357 358 357 356
353 356 356 356 358 360 361 361 361 365 366 365 364 363 364 364 364 365 365 365 365 365 364 364 364 364 364 364 363 363 363 363 363 363 363 363 362 362 362 362 361 361 360 361 361 361 362 361 361 361 362 361 362 362 361 360 360 360 360 360 360 359 360 358 350 348 350 354 354 351 350 352 359 357 356 356 355 357 357 357 357 358 358 356 356
355 356 355 356 357 359 361 361 361 360 360 364 365 364 363 363 364 365 365 365 365 365 364 364 363 363 363 363 363 363 363 363 364 364 364 363 363 363 363 363 361 360 361 361 359 361 360 359 361 360 360 361 361 361 360 360 359 359 359 360 360 360 360 359 349 350 354 358 351 354 353 359 360 357 357 356 355 357 357 358 358 358 358 357 356
355 355 356 356 357 358 359 360 359 360 360 360 361 362 363 364 364 365 365 365 365 366 364 363 363 363 363 364 364 364 363 364 364 364 364 365 363 363 361 360 360 361 361 361 361 360 358 359 360 358 359 360 360 361 360 360 360 359 360 360 361 359 360 356 349 349 355 354 352 352 352 359 360 357 357 356 355 356 357 357 357 356 357 357 356
355 355 355 356 357 358 358 359 358 359 359 359 360 360 363 363 364 364 365 365 366 365 364 363 363 362 363 363 364 363 362 362 365 363 364 365 363 362 360 359 360 360 360 361 362 362 360 360 358 358 361 360 362 363 362 361 361 361 360 359 360 361 353 348 348 348 349 353 356 351 356 360 358 357 357 356 355 356 357 357 357 357 356 357 357
354 355 355 356 357 357 357 358 358 359 359 358 358 358 360 364 362 364 364 365 365 365 364 364 363 362 361 362 363 362 358 359 360 359 364 361 362 362 361 360 359 359 360 361 361 360 360 362 362 362 360 360 362 362 363 363 362 362 361 361 360 352 349 348 349 352 351 354 358 351 357 361 358 357 357 356 356 357 355 356 357 357 357 356 356
351 353 355 357 357 357 357 357 358 358 358 358 358 358 360 362 358 359 360 361 363 363 361 359 363 359 364 361 358 362 358 355 355 366 359 362 361 362 363 363 363 360 359 359 360 362 363 362 361 360 361 362 362 358 360 364 362 361 361 362 352 346 348 347 347 349 353 350 356 355 358 360 359 358 357 357 357 357 356 355 355 356 357 356 356
349 351 353 356 357 357 358 357 357 358 357 357 358 358 358 358 357 358 360 362 363 361 358 362 357 358 358 358 360 357 356 355 358 362 362 365 364 364 363 363 364 363 359 358 361 362 363 364 364 363 362 363 359 355 355 352 352 363 361 355 345 346 346 346 345 345 351 350 355 359 359 360 359 358 356 357 358 357 357 356 355 355 355 356 355
348 350 351 355 356 356 357 357 357 357 357 357 357 357 357 357 357 358 359 359 360 361 358 359 357 357 357 356 357 356 357 353 365 366 364 362 362 365 362 363 363 362 360 361 364 364 366 368 368 365 366 368 355 353 354 352 350 348 348 348 346 345 343 343 344 344 346 352 356 360 360 360 359 358 357 357 356 357 357 356 355 355 356 355 355
348 350 351 352 354 355 356 356 358 357 356 357 357 357 357 357 357 357 358 357 358 358 357 357 356 356 356 357 356 357 358 356 356 359 359 358 357 357 359 359 357 353 365 354 354 356 360 357 359 360 354 355 354 351 352 352 352 348 347 346 345 343 343 347 343 343 346 347 355 360 361 359 359 358 357 356 357 356 357 356 356 356 356 356 355
349 348 349 351 353 355 356 356 357 357 357 356 357 358 358 356 356 357 357 356 357 357 356 357 357 356 356 357 359 357 356 357 355 356 358 356 355 355 357 357 354 356 358 355 353 353 354 353 353 354 353 353 354 351 348 352 350 348 347 346 345 344 344 343 344 343 345 346 354 361 360 360 360 359 358 356 355 357 356 356 356 356 357 356 356
346 347 349 351 353 354 355 356 356 356 356 357 357 358 357 356 356 356 356 355 356 356 356 356 357 356 356 358 357 355 354 354 354 354 355 356 355 354 354 355 356 355 356 355 354 354 353 352 350 352 350 351 352 349 347 350 346 348 347 346 344 344 343 343 343 343 343 346 353 362 360 359 359 359 358 357 356 356 356 357 357 357 358 357 356
345 346 349 350 353 353 354 355 355 355 355 357 357 356 357 356 356 359 358 358 357 356 356 357 357 357 357 357 360 355 355 353 354 353 353 353 355 356 354 353 355 355 355 357 355 353 352 352 351 351 350 350 348 346 345 345 342 342 344 344 344 343 342 342 343 343 343 345 349 360 361 360 360 359 359 357 358 357 356 357 357 357 357 357 356
344 345 348 349 352 354 354 354 355 355 355 356 356 356 357 357 356 356 357 360 357 356 357 357 356 357 357 358 360 356 355 353 352 352 351 352 353 355 354 353 353 353 354 355 355 352 352 352 353 350 348 347 345 345 346 344 341 340 339 340 343 342 341 341 342 343 343 344 347 352 362 363 360 359 360 358 358 357 357 356 357 356 356 357 357
344 345 347 349 352 353 353 354 355 355 355 355 355 355 356 356 355 356 356 359 357 357 357 357 357 356 356 358 358 358 355 353 352 352 350 351 352 354 355 353 352 352 354 354 354 352 349 348 348 348 348 347 346 347 346 344 344 342 337 338 340 341 341 341 342 344 343 345 347 351 362 363 363 360 360 358 358 356 358 357 356 357 355 356 356
345 344 347 349 353 353 352 354 355 356 355 354 354 354 355 355 356 355 356 357 357 357 357 357 357 356 356 357 358 359 356 353 352 351 350 351 352 353 353 353 351 352 355 354 352 353 349 349 349 347 346 345 345 345 346 343 341 342 341 336 335 337 339 341 343 344 344 344 346 350 358 363 363 362 361 360 358 357 358 353 356 355 356 354 352
344 344 346 350 352 352 352 353 355 355 355 354 355 354 354 354 356 355 355 356 358 356 356 356 357 356 357 356 357 357 359 353 352 351 350 351 351 351 352 351 351 351 355 353 351 354 350 350 350 349 348 345 344 344 345 344 341 340 336 337 337 338 337 339 343 345 345 345 347 349 350 360 362 362 362 362 359 359 357 355 352 353 352 354 354
347 346 347 350 351 353 352 353 355 355 354 354 354 355 354 354 354 355 355 357 356 356 355 355 355 356 356 357 357 357 358 354 352 351 356 351 351 350 351 353 352 351 354 353 354 352 351 351 349 353 347 345 344 344 346 340 339 337 335 336 337 338 339 337 339 343 346 347 347 348 350 356 358 362 362 361 361 361 355 353 355 354 354 355 353
348 348 349 350 352 354 354 354 354 354 354 354 355 355 354 353 354 355 357 356 356 356 356 355 356 355 356 356 357 357 358 355 352 350 351 351 352 352 351 353 353 353 353 354 352 350 348 347 347 348 354 346 342 343 340 338 338 336 333 336 336 337 336 335 335 341 346 348 348 348 350 352 354 353 357 361 361 361 355 356 357 355 357 358 356
350 349 348 350 353 353 355 354 355 353 355 354 355 355 355 353 353 354 355 356 355 355 355 355 355 355 355 356 357 357 358 355 353 351 351 351 352 351 351 353 354 354 354 354 351 348 346 346 349 344 342 343 342 346 342 338 338 336 334 339 335 342 337 336 340 345 347 347 348 348 349 350 350 351 354 353 362 362 360 358 359 358 357 358 356
349 349 350 351 352 353 355 353 354 353 354 354 354 355 355 354 352 357 355 355 356 355 355 354 354 354 355 355 357 358 358 355 353 352 351 352 352 350 351 352 355 354 353 353 350 348 347 346 348 344 341 341 343 339 339 335 337 337 336 335 335 345 335 336 342 346 347 348 348 347 348 348 349 349 359 351 351 356 361 360 359 359 358 359 355
350 350 349 350 351 352 356 353 353 353 353 354 354 354 355 353 352 354 355 355 354 354 354 354 353 353 354 355 356 358 359 356 354 354 353 353 350 350 351 353 355 352 351 350 349 350 348 348 345 348 341 338 340 341 337 337 334 334 333 334 338 341 336 337 337 342 347 345 344 348 347 347 351 361 354 351 350 352 358 361 360 359 359 358 358
350 350 350 350 351 352 354 353 353 354 353 354 353 353 354 354 353 353 357 354 354 354 354 353 352 352 354 355 356 358 360 357 355 356 355 354 351 351 352 353 353 350 349 349 348 349 346 345 344 345 345 341 340 338 336 335 335 335 334 333 334 335 337 338 344 349 343 342 343 345 348 347 350 350 351 349 349 350 352 357 360 359 358 357 357
350 350 350 351 351 352 354 354 354 353 353 354 354 353 353 353 353 352 353 353 353 354 353 352 352 352 354 356 356 358 361 358 357 357 354 356 352 352 352 353 353 350 349 348 346 347 345 343 342 342 347 342 340 338 335 334 334 336 338 335 334 335 336 342 339 337 339 342 345 348 348 344 346 348 347 346 346 347 348 350 351 349 349 360 357
350 350 350 350 350 350 352 353 353 353 353 353 353 351 351 351 350 350 351 352 352 353 353 352 352 352 355 356 357 357 359 359 358 357 355 356 353 352 352 353 352 350 347 346 344 345 345 343 341 341 340 342 347 338 334 335 331 329 339 337 335 336 334 344 337 337 340 338 344 346 344 343 344 345 346 345 346 347 346 346 351 346 349 354 358
348 349 349 349 349 349 350 350 352 353 352 351 351 350 348 348 350 349 349 351 351 352 352 352 352 352 354 356 357 357 359 359 359 358 356 360 354 353 351 352 352 350 348 347 346 346 345 345 344 346 340 336 335 336 335 330 327 327 326 328 331 336 348 341 336 336 338 337 342 343 343 344 341 343 343 343 343 344 343 344 345 344 344 345 350
346 347 347 348 348 349 349 350 352 352 352 351 351 350 350 350 349 349 349 350 350 351 350 351 352 354 355 356 357 357 358 359 359 358 357 357 354 353 352 351 352 350 348 348 346 350 347 344 343 340 337 334 333 334 336 332 326 325 323 325 328 328 338 336 336 336 332 337 340 339 341 341 340 341 341 341 341 342 341 342 342 342 342 344 344
346 346 348 348 348 348 348 350 351 351 351 352 352 350 350 351 351 350 350 349 352 353 352 353 354 353 354 356 358 358 358 358 359 359 357 357 355 354 353 352 352 352 349 346 346 345 345 344 341 337 333 334 334 335 333 331 325 330 327 324 321 321 329 327 332 336 332 334 335 336 338 338 339 339 340 340 340 339 340 340 339 340 342 343 342
345 346 346 347 347 348 347 349 350 351 351 352 353 352 352 351 351 351 351 351 350 353 352 353 353 352 352 355 357 358 358 358 359 359 358 358 356 355 354 352 352 352 349 347 345 344 343 341 340 338 332 329 328 329 337 332 329 329 322 322 321 321 319 320 324 330 334 330 332 332 336 336 337 337 337 338 340 338 336 337 339 339 340 340 341
344 345 346 346 347 347 347 348 350 351 351 353 353 352 353 351 349 348 350 350 351 351 349 349 351 352 353 353 355 358 358 358 358 359 359 358 357 355 353 353 352 351 350 347 345 345 343 342 340 337 331 329 327 328 334 333 331 331 329 325 319 318 318 321 325 323 328 326 328 329 337 335 335 336 337 337 335 334 335 334 336 338 339 340 340
344 345 347 347 347 347 347 348 349 350 351 351 352 352 351 349 346 345 344 345 345 346 346 347 348 350 352 353 355 358 358 358 358 359 359 359 357 355 353 352 351 351 350 347 345 342 340 339 337 336 330 329 329 328 329 340 333 337 332 325 323 320 319 321 319 317 326 328 328 330 332 333 333 337 333 333 333 333 338 333 333 338 340 340 342
344 346 347 347 347 347 347 348 348 350 351 351 351 353 350 349 348 346 346 345 345 346 348 349 350 350 354 353 354 357 358 358 358 359 359 359 357 355 353 352 351 351 352 346 343 342 341 339 338 334 332 337 329 327 328 329 330 332 335 333 338 332 327 323 319 317 317 320 323 323 325 327 329 332 332 332 333 331 332 334 333 336 339 340 340
344 345 346 347 346 346 346 347 348 351 351 351 350 352 350 349 348 347 347 346 346 346 347 348 349 351 352 354 354 356 357 358 358 358 359 359 357 354 353 351 350 350 351 346 344 342 340 337 339 336 333 337 331 330 329 329 327 327 339 332 336 334 329 327 323 319 317 316 317 321 325 326 327 326 330 332 332 331 331 331 330 331 338 340 340
343 344 345 346 347 347 347 347 348 350 350 351 350 351 352 350 348 347 346 347 347 347 348 348 347 351 350 353 354 356 357 357 358 358 359 359 359 355 352 351 350 349 353 346 343 342 339 336 336 334 334 333 332 332 331 330 327 326 327 326 326 326 325 329 329 325 320 315 315 317 318 321 324 324 325 327 330 330 333 332 332 334 341 344 342
343 345 345 346 346 346 346 346 346 349 350 350 351 350 351 351 348 347 346 346 347 346 346 346 346 348 349 352 354 354 356 356 357 357 357 358 358 355 352 351 350 349 352 346 343 340 338 336 337 336 335 333 332 334 332 331 330 329 329 327 326 324 322 322 322 319 319 318 316 317 318 318 318 321 325 325 327 327 328 330 331 334 336 340 341
342 343 344 345 346 345 346 345 346 348 350 350 350 349 350 350 349 347 346 346 346 345 344 345 346 347 347 351 353 354 355 356 356 356 356 357 357 356 353 351 350 351 351 345 342 340 339 338 338 336 336 333 333 333 338 333 332 331 329 327 327 324 322 320 320 321 319 316 315 317 317 319 319 317 322 325 328 325 326 328 326 329 332 335 339
Wind_Speed
3 4 3 6 8 13 17 18 18 18 19 19 19 19 19 19 19 20 19 19 19 18 17 17 17 17 16 16 16 15 15 15 14 14 14 14 14 14 13 13 12 12 11 11 11 12 12 11 10 10 10 10 10 9 9 10 9 9 9 9 9 9 9 9 9 9 9 10 11 9 8 12 9 9 9 10 13 13 13 13 11 6 4 8 12
9 4 2 6 9 8 16 17 18 18 18 19 19 19 19 19 19 20 19 19 18 17 17 17 17 16 16 15 15 15 14 14 14 14 14 14 14 13 13 12 12 11 10 10 10 11 11 10 10 10 10 10 10 10 8 9 9 9 9 9 9 8 8 9 9 9 9 9 10 11 11 11 11 14 11 9 12 12 12 12 12 5 3 10 12
7 6 4 5 11 9 15 17 18 18 18 18 18 18 18 19 19 19 19 18 17 17 17 16 16 15 15 15 14 14 14 14 14 13 14 14 13 12 12 12 11 10 9 9 10 10 9 9 8 9 10 10 9 9 9 7 8 8 8 8 8 8 8 8 8 9 9 9 9 9 10 10 9 11 11 10 12 13 13 12 12 9 6 12 11
8 6 5 7 13 11 13 17 18 18 19 18 18 17 17 18 18 18 18 17 16 16 16 16 15 15 15 14 14 14 14 13 13 13 13 12 12 12 11 11 10 9 9 9 9 9 9 8 8 8 9 10 9 9 8 7 7 7 7 8 7 7 7 8 9 9 8 9 9 7 3 3 4 10 11 11 12 13 12 12 11 11 12 11 12
8 7 6 4 7 10 13 17 18 19 18 18 18 17 17 17 17 17 17 16 16 16 16 15 15 14 14 14 14 14 13 13 13 12 12 11 11 10 10 9 9 8 8 8 8 8 8 7 7 8 9 10 11 10 9 8 7 5 6 6 7 7 7 7 7 8 8 8 9 6 3 4 4 7 8 11 12 12 12 12 12 12 11 12 12
8 7 6 6 6 9 12 16 18 18 18 18 17 16 16 16 16 16 15 15 15 15 15 15 14 14 13 13 13 13 13 13 12 12 11 11 10 9 9 9 8 7 7 7 7 7 7 7 7 7 10 11 12 7 7 7 6 5 5 5 6 7 6 6 6 6 7 8 7 3 3 3 4 4 5 9 12 12 12 13 12 12 11 13 12
10 6 6 5 4 7 11 15 18 18 18 17 16 16 16 16 16 15 15 15 15 15 15 14 14 13 13 13 13 13 13 12 12 11 10 10 9 9 8 7 7 6 6 7 7 6 6 6 6 7 9 13 10 7 8 6 8 10 8 2 6 6 5 5 4 5 6 5 2 2 3 3 4 4 11 6 10 12 13 13 12 12 11 11 12
7 6 6 5 5 10 12 15 17 17 17 17 16 15 15 16 15 14 14 14 14 14 14 14 13 13 12 12 12 12 12 12 11 11 9 9 8 8 7 6 6 6 6 5 5 5 5 5 6 7 8 12 9 8 9 5 9 10 2 2 4 5 5 4 4 5 7 2 2 2 2 3 4 5 9 6 7 11 12 13 12 12 11 12 11
8 7 7 6 6 13 14 16 17 17 17 17 16 15 15 15 14 13 13 13 14 14 14 13 13 12 12 12 12 12 11 11 10 10 9 8 7 7 6 6 5 5 5 4 4 4 4 5 6 6 7 9 8 9 9 7 9 8 6 3 5 4 4 4 5 6 4 2 1 1 2 3 4 5 10 7 10 6 10 10 11 13 12 12 12
8 7 6 5 6 14 15 17 17 17 17 16 15 14 14 14 13 13 13 13 13 13 13 13 12 12 12 12 12 11 11 10 10 9 8 7 7 6 6 5 4 4 3 4 3 3 4 4 5 6 7 7 7 8 8 7 7 8 6 2 4 4 5 4 5 5 2 2 1 1 0 5 3 4 10 13 13 10 9 11 8 9 9 12 13
9 7 5 6 8 14 16 17 17 17 17 17 15 15 14 14 13 13 12 13 13 13 13 12 12 12 12 11 11 11 10 10 9 9 8 7 6 6 6 5 4 3 3 3 3 3 4 4 5 5 5 6 5 6 9 6 6 6 5 4 3 3 4 5 6 2 2 2 1 0 1 8 3 2 11 13 12 10 10 9 10 11 12 12 12
8 6 5 5 11 17 16 17 17 17 17 16 15 15 14 14 13 13 12 12 12 13 12 12 12 12 11 11 11 11 10 10 9 9 8 7 6 6 5 4 3 2 2 2 2 3 4 4 5 5 5 5 5 5 6 7 9 7 5 5 3 4 5 6 3 3 2 2 2 2 1 4 3 5 12 12 10 11 10 8 9 11 12 11 12
8 8 6 6 9 16 17 17 17 17 16 16 16 15 14 14 13 13 13 12 12 12 12 12 12 11 11 11 11 10 10 10 9 9 8 7 6 5 4 3 2 1 1 2 3 3 4 4 5 5 5 5 5 4 5 6 9 9 7 5 5 4 6 7 3 3 3 3 2 3 3 3 2 7 10 12 10 10 11 10 8 10 11 11 11
9 8 7 7 5 14 16 17 17 17 17 16 16 15 15 14 14 13 13 13 12 12 12 12 11 11 11 10 10 10 10 10 9 8 7 7 5 4 4 3 2 1 1 2 3 4 3 4 4 5 5 5 5 4 4 5 7 9 8 6 5 4 7 6 4 2 2 3 2 3 3 2 1 7 9 11 10 11 12 12 11 10 11 11 11
10 9 8 7 7 8 16 16 17 17 17 17 16 16 15 14 14 14 13 13 12 12 12 11 11 11 10 10 10 10 10 9 9 8 7 6 5 4 3 2 2 1 1 2 3 3 3 3 3 4 5 5 4 3 3 3 5 8 8 7 6 6 7 3 2 2 3 3 3 3 3 2 4 7 9 10 10 11 12 12 12 12 11 11 11
10 10 8 7 6 6 8 14 18 18 17 16 16 16 15 15 14 13 13 13 13 12 12 11 11 11 10 10 10 10 9 9 8 8 7 6 5 4 3 3 2 1 1 2 2 2 2 2 3 4 5 4 3 4 3 3 3 6 7 7 7 7 8 5 2 2 2 3 3 3 3 2 7 7 9 10 11 11 11 11 12 12 12 11 11
10 9 8 8 7 6 7 8 12 19 17 16 16 16 15 15 14 13 13 13 13 12 11 11 11 10 10 10 9 9 9 9 8 7 7 6 5 5 4 4 3 1 0 2 1 2 2 2 2 3 3 4 3 3 3 3 3 4 5 6 6 7 9 6 3 2 3 3 3 3 3 2 6 7 9 10 11 11 11 10 11 12 12 12 11
10 9 9 8 7 7 6 9 9 10 8 13 15 16 15 15 14 13 13 13 13 12 12 11 11 10 10 10 9 9 9 9 9 8 7 7 6 5 5 4 3 1 0 1 1 1 1 1 2 2 3 2 3 3 3 3 4 4 4 5 6 7 8 8 3 3 4 4 4 2 2 4 6 8 9 10 11 11 11 11 11 11 12 12 12
9 9 8 8 7 7 6 6 7 7 7 6 6 11 16 15 14 14 13 13 13 12 12 11 11 11 10 10 9 10 9 9 9 8 8 7 6 6 5 4 3 2 1 0 1 1 1 1 2 1 1 2 2 3 3 3 2 4 4 4 6 7 8 5 2 2 2 4 4 4 4 6 6 9 9 10 10 11 11 11 11 12 12 12 12
8 8 8 7 7 7 6 6 7 6 6 5 7 7 13 16 14 14 13 13 13 12 12 12 11 11 11 10 10 7 8 6 9 7 8 7 6 5 6 5 5 3 2 1 1 1 1 1 1 2 1 0 1 2 2 3 3 4 4 4 5 6 4 3 3 2 2 3 4 4 4 7 8 9 10 10 11 11 10 11 11 11 12 12 12
6 7 7 7 8 8 7 6 7 8 7 6 6 7 9 15 13 14 14 13 12 13 12 12 12 11 10 9 9 5 3 3 4 3 6 3 5 6 6 7 6 4 3 3 2 2 1 2 2 2 2 2 2 3 3 3 4 4 5 4 5 3 2 2 2 2 1 1 3 4 7 8 10 10 11 11 10 10 10 10 10 10 10 11 11
8 8 8 8 8 8 8 7 6 8 7 6 5 5 6 11 6 6 7 9 11 11 9 5 8 3 10 7 4 3 3 3 2 5 2 2 4 7 7 8 7 6 5 4 4 3 3 3 3 3 3 3 3 1 2 3 4 4 4 4 1 1 1 1 2 3 2 1 2 4 7 9 10 11 12 12 12 11 11 10 10 10 10 10 10
9 8 9 11 8 7 7 8 7 7 7 6 5 5 5 5 5 5 5 9 6 7 3 4 3 4 3 3 3 3 2 2 2 3 3 5 4 7 8 9 9 7 6 5 5 5 5 5 4 4 4 5 2 2 2 2 2 3 4 1 2 0 0 0 1 1 2 2 2 6 9 10 10 11 12 12 13 12 11 10 10 9 9 9 9
10 9 9 7 8 7 8 8 8 8 7 6 5 5 4 4 5 4 4 4 4 3 4 3 3 4 3 3 4 3 3 3 5 9 8 4 4 7 9 9 9 8 7 4 5 6 7 7 6 6 4 2 1 2 2 2 2 2 0 1 1 2 2 1 1 1 1 3 2 7 10 11 11 11 11 12 12 12 11 11 10 10 9 9 9
9 8 7 8 9 8 8 8 8 7 7 6 6 6 4 4 5 4 4 4 4 3 4 3 3 4 4 4 3 3 3 3 3 3 3 3 3 3 3 3 3 3 5 3 2 3 4 4 4 4 3 2 2 3 2 2 2 2 2 2 2 2 2 2 2 2 2 3 2 8 11 13 12 12 12 13 12 12 12 11 11 10 10 10 9
7 9 10 9 10 9 9 8 8 8 8 7 7 6 6 5 5 5 5 4 4 4 4 4 4 5 4 4 3 4 3 3 3 4 4 3 3 4 4 3 3 3 3 4 4 2 3 3 3 3 3 2 3 2 3 3 3 3 3 3 4 2 3 3 3 3 3 3 2 7 10 12 12 12 12 12 12 12 12 12 12 12 11 11 11
10 9 9 8 9 9 9 8 8 8 8 6 5 5 6 5 5 5 5 5 4 4 5 5 5 4 4 4 4 4 4 4 4 4 5 4 4 4 4 4 3 4 3 3 4 3 3 4 3 4 2 2 2 1 1 1 2 3 4 4 3 3 3 3 3 4 3 3 4 8 11 11 12 13 13 14 11 12 12 13 13 13 12 12 12
9 10 9 9 9 11 10 9 9 8 8 7 7 6 5 6 6 6 6 6 5 5 5 5 5 5 4 4 3 4 4 4 4 4 5 4 5 4 3 3 4 4 3 3 4 4 4 4 4 3 2 1 1 2 1 1 2 3 3 4 3 4 4 4 3 3 3 4 3 7 11 11 12 12 13 14 14 12 11 13 14 13 12 12 12
11 11 10 10 11 10 10 11 9 10 8 8 8 7 6 6 5 6 6 7 6 6 5 5 5 5 4 5 4 5 4 4 5 5 4 5 5 5 4 4 4 5 3 4 4 4 4 4 4 3 1 2 2 2 1 2 2 2 3 3 4 5 4 4 4 4 4 4 4 5 10 11 11 12 13 11 13 12 14 13 13 13 12 13 12
13 12 11 10 10 10 12 12 11 10 9 8 7 7 7 7 7 7 6 7 6 6 5 5 5 5 5 5 6 5 5 5 5 5 5 6 5 4 4 5 5 4 4 5 4 3 4 2 2 1 2 2 2 0 0 2 1 1 2 2 2 4 5 5 5 5 4 4 4 3 9 10 11 11 12 11 13 13 13 12 12 13 12 13 12
12 12 11 10 10 11 11 11 10 10 8 9 8 8 7 7 7 7 6 7 6 5 6 6 5 5 6 6 6 6 5 5 5 5 5 5 5 4 5 4 4 4 4 5 2 3 3 3 3 4 0 1 1 0 0 3 2 2 0 2 1 1 3 4 4 4 4 4 4 3 4 10 10 10 10 12 11 10 13 9 10 11 11 7 10
13 13 11 10 10 13 13 12 11 10 10 10 8 8 8 8 8 7 7 7 6 6 6 6 6 6 6 6 6 6 6 5 6 5 5 5 5 5 4 3 5 4 4 4 3 3 3 3 2 0 1 2 1 1 1 1 2 0 1 3 1 2 4 4 5 5 5 4 3 3 2 4 9 9 10 11 10 11 8 9 9 4 8 8 11
11 12 12 11 13 13 12 12 12 11 11 11 10 8 8 8 8 7 7 7 7 6 7 7 7 7 6 7 7 7 6 6 6 6 5 5 4 4 4 5 5 4 4 3 3 2 2 2 2 0 1 2 2 4 2 0 0 2 1 2 2 0 3 1 3 4 5 4 4 3 4 2 2 7 9 8 9 11 9 8 9 10 13 11 7
10 9 11 13 11 9 9 10 12 12 12 10 9 8 8 8 7 7 7 7 7 7 7 7 7 7 7 7 7 7 7 6 6 5 5 5 4 5 5 5 5 3 3 3 3 2 2 2 2 1 2 2 2 2 3 3 1 1 3 2 0 1 1 2 2 4 3 3 3 3 3 2 2 1 2 7 7 9 6 12 13 12 11 12 12
9 10 13 13 12 11 10 9 11 12 12 11 10 9 8 8 8 7 7 7 7 7 7 7 7 7 7 7 7 7 7 7 6 6 5 5 5 4 4 5 4 3 4 4 4 3 2 3 1 2 1 1 1 1 2 2 2 2 1 1 0 1 2 1 2 3 3 3 3 2 2 2 2 2 2 1 3 5 4 8 11 11 11 12 11
13 12 12 12 13 12 11 11 12 13 12 12 10 9 9 8 8 7 7 7 7 7 7 7 7 6 6 7 7 7 7 7 6 5 5 4 5 5 4 3 3 4 4 4 3 4 3 2 1 2 2 1 1 1 1 2 2 0 1 1 1 1 2 2 3 4 3 4 3 3 2 2 2 2 3 2 1 1 5 6 8 9 10 11 8
13 13 13 12 12 12 12 12 13 14 13 12 10 8 8 8 8 8 8 7 7 7 7 7 6 6 6 6 7 7 7 7 6 6 5 5 4 4 4 4 3 4 4 4 4 4 3 3 2 2 2 2 0 1 2 3 2 2 3 1 1 2 2 3 2 3 4 3 3 3 2 2 2 4 2 3 2 2 2 5 6 8 9 9 8
13 13 13 14 14 12 12 12 11 13 12 11 10 9 8 8 7 7 7 8 8 7 7 6 7 7 6 7 6 7 6 7 6 6 5 5 5 5 4 4 4 4 4 4 5 3 3 3 3 1 1 1 0 0 1 2 2 2 2 1 2 3 4 3 2 2 5 3 2 3 4 1 1 1 2 1 2 2 2 4 5 5 5 6 7
12 14 13 12 11 11 11 12 12 12 11 11 10 8 8 7 6 7 7 8 7 7 7 7 7 6 7 7 7 7 6 6 6 6 6 5 5 5 5 4 4 5 4 4 3 3 3 2 3 3 1 2 2 2 1 1 2 1 1 2 1 1 2 2 2 3 2 4 4 4 2 2 1 1 1 1 1 2 2 1 1 1 0 3 5
13 13 13 13 12 11 10 10 11 11 10 10 9 8 7 8 8 6 7 8 8 8 7 7 6 7 7 7 7 7 6 6 6 6 6 6 5 5 5 5 5 5 5 4 4 4 5 3 3 3 3 1 1 2 1 1 2 2 2 3 3 2 2 1 0 2 3 3 4 2 2 1 1 0 1 1 0 0 0 1 2 2 1 2 5
14 14 14 14 15 14 12 13 11 11 10 10 10 9 9 8 8 10 10 9 8 8 7 7 7 7 7 7 7 7 6 6 6 6 6 6 5 5 5 5 5 5 5 6 5 5 3 3 2 1 2 2 1 1 1 3 3 1 2 2 3 2 0 5 3 3 4 5 3 3 2 2 1 1 0 0 0 0 0 0 0 1 2 2 1
14 15 17 17 15 14 14 13 11 11 12 12 11 10 10 10 10 10 8 8 8 8 8 7 7 6 7 7 7 6 7 7 7 6 6 6 6 5 6 6 5 5 5 4 3 3 3 2 2 2 0 3 2 1 2 1 1 1 1 1 1 3 1 2 2 1 3 3 4 4 3 3 2 1 1 1 0 1 1 1 1 2 2 2 2
18 17 17 15 15 15 14 13 12 12 12 12 11 11 9 9 9 7 9 7 6 7 7 6 5 7 7 7 7 6 7 6 6 7 6 6 7 7 6 6 6 5 4 3 3 4 4 4 4 4 2 0 1 1 3 3 2 2 1 2 1 1 1 2 1 2 0 3 4 4 3 3 2 1 1 0 1 1 1 1 3 3 3 3 3
15 15 15 17 15 14 14 15 14 13 12 13 12 10 10 8 7 6 6 7 6 5 5 4 6 6 7 7 6 7 7 7 7 7 6 6 7 7 6 5 6 5 6 5 5 5 4 4 4 3 3 2 1 2 3 3 3 5 1 0 2 2 1 2 1 2 1 3 5 4 3 4 3 1 1 2 4 3 2 2 3 2 2 2 2
16 16 17 17 14 18 17 17 14 14 12 12 13 10 8 6 5 3 3 4 1 4 4 5 7 7 6 6 8 6 7 7 7 8 7 8 7 6 6 6 6 6 5 5 6 6 5 5 5 4 4 5 3 2 1 3 3 2 5 3 2 0 2 1 1 2 3 2 0 2 3 4 4 3 3 4 3 2 1 1 1 1 2 2 3
17 17 18 19 17 15 15 14 12 12 13 14 14 11 11 10 8 8 8 8 9 8 11 12 8 8 9 5 5 7 7 7 7 8 8 7 7 6 6 6 6 6 6 6 5 4 4 5 5 6 5 3 4 2 1 1 2 3 2 1 4 3 3 1 2 0 2 2 1 2 1 2 2 3 3 3 3 3 1 2 0 1 2 3 3
19 17 16 17 17 16 16 16 14 12 13 13 14 12 12 11 13 13 11 11 11 9 7 7 8 6 5 7 7 6 8 9 8 8 8 8 7 6 6 6 6 6 5 5 5 6 6 6 4 4 5 4 2 3 4 3 0 1 1 0 1 0 5 5 2 2 2 2 2 1 0 0 1 1 3 3 3 3 3 1 1 2 2 3 2
20 17 16 15 17 17 17 17 14 14 13 13 14 14 13 13 13 13 11 11 12 11 9 8 4 5 6 6 6 6 7 8 8 8 8 8 7 6 6 6 6 6 6 6 6 6 4 3 4 5 4 4 5 5 5 3 5 2 0 1 1 2 1 2 3 6 5 5 2 2 1 0 0 2 2 3 4 4 4 3 2 2 3 3 2
19 17 17 17 17 17 17 16 16 14 13 15 15 15 14 14 13 12 12 11 11 9 6 5 6 6 6 5 6 7 7 8 8 8 8 7 7 7 7 7 6 6 6 6 5 5 6 5 4 3 4 4 5 4 5 6 4 5 1 0 1 1 2 2 2 2 3 4 2 3 2 1 0 2 4 3 4 3 4 4 2 2 3 3 3
18 19 19 17 16 15 16 17 17 14 14 16 15 16 16 13 13 13 15 12 9 7 5 7 7 6 7 7 7 7 7 7 8 7 7 7 7 7 7 8 8 7 6 7 6 5 4 4 5 6 5 5 4 4 6 5 6 4 4 4 3 1 1 1 1 3 3 2 6 6 4 5 4 5 3 5 5 5 4 3 3 3 3 3 3
15 16 16 16 15 16 17 18 19 15 15 17 16 17 15 14 13 14 15 14 12 9 7 7 6 6 7 7 8 8 7 8 7 6 7 7 7 8 8 8 7 7 7 6 6 7 6 6 5 4 5 6 5 5 3 4 4 4 4 5 6 6 5 4 4 2 2 2 2 3 1 4 6 4 5 5 4 4 4 3 3 5 3 4 4
Wind_Direction
226 195 189 165 157 158 131 128 125 123 122 120 119 119 117 113 112 112 111 110 111 111 111 109 109 109 110 111 111 111 109 108 107 103 100 100 96 95 94 93 92 88 87 88 90 91 92 95 99 99 97 96 92 96 92 88 92 93 94 94 95 97 98 100 102 101 103 104 104 91 102 111 117 103 96 111 110 109 105 101 98 94 83 105 107
171 183 156 156 169 163 134 128 127 125 123 121 119 118 116 114 112 111 112 113 113 113 111 110 110 110 111 111 111 108 107 106 102 100 100 98 97 97 97 96 95 94 92 90 88 86 90 93 96 94 93 91 93 94 90 96 95 96 95 93 92 92 98 103 103 104 102 100 105 118 123 115 119 126 122 111 112 108 106 103 102 89 95 108 107
143 148 158 169 156 162 137 133 130 126 123 120 118 116 115 113 112 112 113 115 116 114 111 110 109 110 111 110 108 107 106 104 103 102 101 99 100 101 101 99 96 96 97 93 88 87 86 91 91 91 89 90 90 91 97 96 100 102 99 98 101 93 92 99 103 105 105 105 104 98 88 97 106 115 115 123 117 113 110 110 111 112 114 112 109
143 147 144 153 150 158 144 135 131 128 126 123 122 118 115 113 113 114 116 117 115 113 111 110 111 112 112 110 111 110 109 108 106 104 102 103 103 103 102 102 105 107 106 103 101 100 98 95 92 91 88 86 88 86 88 94 95 99 107 110 107 104 98 96 96 93 95 97 94 77 69 66 115 112 123 128 120 118 116 115 115 117 117 112 109
141 142 151 162 161 166 145 138 135 131 129 127 124 120 117 116 116 117 118 117 115 113 112 113 114 114 113 115 114 112 112 110 107 106 107 107 105 106 107 112 112 111 111 108 106 104 104 102 97 93 93 80 68 63 68 71 76 92 105 102 111 114 110 108 108 101 98 98 93 65 55 56 66 109 127 130 126 121 119 118 114 106 108 112 109
145 146 153 162 161 164 149 140 138 135 132 130 126 122 120 119 119 119 118 116 114 113 115 116 117 117 118 117 115 114 113 110 111 110 109 109 112 115 117 117 121 120 115 111 108 107 103 99 99 95 93 87 80 75 83 83 95 102 106 118 118 120 123 122 117 108 108 108 86 58 52 75 94 137 129 129 130 124 118 111 114 118 117 108 113
142 145 150 156 163 156 148 143 142 138 135 132 127 124 124 122 121 121 119 117 116 118 119 120 120 121 119 116 117 115 113 114 113 112 112 115 118 120 122 126 128 128 123 118 115 112 108 103 96 91 88 92 97 91 66 72 82 64 19 133 129 128 133 133 130 124 110 79 44 51 68 72 85 100 126 152 139 124 120 120 114 106 106 111 112
133 143 152 161 161 157 153 146 145 142 139 135 130 129 127 125 124 123 121 120 120 121 123 122 123 122 120 120 119 117 118 118 117 115 118 120 122 124 127 133 135 134 129 121 117 113 110 104 95 89 89 89 101 100 97 86 89 91 125 249 126 137 141 152 149 133 123 82 63 48 54 64 91 104 122 121 119 125 124 120 116 113 109 109 110
143 151 155 155 156 152 152 151 148 145 142 138 135 133 129 126 125 124 124 123 124 125 125 125 126 126 125 123 122 122 122 122 119 122 126 127 126 130 135 139 145 141 134 125 119 115 106 99 93 89 92 100 107 113 116 114 115 132 156 213 140 151 151 151 156 131 105 105 92 57 36 63 94 108 131 136 100 96 122 118 116 116 117 112 107
144 147 153 147 151 155 156 153 151 148 144 141 139 136 133 129 129 128 129 129 128 128 128 130 131 130 128 128 126 125 127 124 128 131 133 134 135 139 140 145 146 141 132 127 123 116 106 94 90 91 94 108 115 112 114 124 133 136 140 147 129 150 145 144 135 107 107 109 103 64 144 101 92 119 140 137 141 157 133 124 127 125 123 115 116
145 149 146 147 156 159 158 157 153 150 148 145 143 141 137 134 134 135 134 134 133 132 134 135 135 133 132 132 130 131 132 136 138 138 143 146 149 145 143 147 151 143 131 125 113 107 98 93 96 97 102 107 117 114 110 114 118 106 110 117 105 140 130 131 97 67 90 107 110 201 201 120 92 96 140 134 143 134 129 127 128 129 122 121 118
148 146 148 152 163 158 160 161 155 152 150 148 146 144 141 140 140 140 140 139 137 138 140 140 140 137 136 134 134 138 142 145 144 148 155 156 153 150 148 145 137 132 124 106 102 94 92 94 96 104 114 116 108 114 113 128 125 122 125 138 153 149 135 112 84 89 107 131 138 164 59 93 120 140 135 133 133 135 131 130 133 129 125 125 122
145 150 152 160 160 164 161 161 157 154 152 152 150 147 145 146 146 146 145 144 144 144 145 145 142 142 141 140 142 147 150 151 154 157 161 162 161 157 147 146 133 133 126 93 80 82 85 90 91 90 106 117 112 111 124 127 126 132 148 158 155 143 134 115 105 113 126 145 149 105 115 122 138 146 139 138 145 142 136 135 144 135 129 128 126
144 153 157 157 165 164 159 160 159 157 155 155 154 152 151 152 151 150 150 150 150 151 151 150 148 147 147 148 152 154 156 158 161 164 165 170 169 158 158 158 161 147 88 68 56 69 75 85 90 92 89 96 116 135 127 128 134 135 146 157 154 142 127 116 115 111 126 146 133 130 130 141 184 147 145 146 150 151 147 154 148 143 135 132 130
150 155 157 156 162 166 162 161 161 158 157 158 157 157 157 156 156 155 155 155 156 157 158 155 154 153 154 156 157 161 161 163 168 170 173 176 176 171 172 184 185 174 101 62 51 50 69 65 78 80 78 89 103 123 128 129 132 137 143 150 147 144 126 90 96 109 130 147 145 135 143 149 171 159 152 154 156 155 154 151 150 144 140 137 136
151 152 153 158 165 167 162 164 163 161 159 160 160 161 160 160 159 159 160 160 161 163 164 161 160 160 162 162 162 164 167 168 173 177 181 185 187 188 193 204 206 208 84 66 41 17 27 66 74 78 81 79 83 100 115 118 135 132 138 142 145 140 134 116 100 88 119 137 141 142 151 172 166 163 159 157 158 159 156 150 150 149 146 144 142
151 152 154 166 168 168 161 163 169 166 161 162 163 164 163 163 164 165 165 165 166 168 168 165 166 165 166 166 168 169 170 176 179 185 190 197 200 205 214 220 223 220 51 56 44 352 350 37 58 87 91 99 91 99 117 126 148 144 143 144 147 140 135 124 118 120 132 143 141 142 164 187 161 166 158 157 157 155 152 151 153 154 153 150 147
152 155 160 166 169 169 164 167 176 167 169 164 168 169 168 167 169 170 170 170 171 172 171 170 170 171 170 172 174 177 178 183 188 191 197 204 208 218 230 234 237 236 176 66 37 340 345 4 45 60 97 106 113 111 132 142 161 152 139 155 146 143 137 132 132 146 145 146 134 148 167 185 163 161 164 159 159 157 153 153 158 159 158 154 149
150 157 160 163 168 167 168 168 160 169 173 164 165 176 173 173 174 175 175 176 176 176 176 174 176 176 177 179 181 184 187 191 194 198 203 210 215 227 240 255 262 272 291 20 17 320 339 9 338 18 63 94 110 138 158 156 169 165 153 164 164 151 147 122 126 121 122 134 152 150 174 183 174 167 169 162 164 162 159 160 160 162 162 159 153
152 158 162 166 166 168 168 168 164 173 172 163 169 174 180 176 177 179 180 181 181 180 181 180 180 182 184 185 189 192 194 199 202 205 209 215 224 233 258 264 273 287 312 326 303 292 274 310 277 269 264 194 176 185 179 162 161 160 167 152 181 143 110 131 130 104 120 144 150 159 179 180 181 177 171 170 170 168 166 167 164 162 164 162 157
160 165 167 169 172 172 173 168 171 170 170 166 169 171 185 178 181 183 184 186 186 186 184 185 186 188 189 191 194 193 208 211 219 203 223 221 231 247 259 268 275 283 294 304 297 288 279 268 259 261 264 248 234 211 211 199 189 187 192 201 183 91 143 141 145 139 140 170 148 174 185 179 185 184 176 176 179 174 174 171 167 166 165 165 162
168 170 174 172 174 176 174 170 169 170 168 166 168 173 181 179 178 185 186 189 191 191 189 181 190 185 193 196 192 198 199 213 245 219 237 249 243 244 253 264 271 277 283 293 292 290 283 269 264 262 254 250 242 199 256 230 212 206 215 222 82 124 138 163 156 162 158 214 149 188 193 188 189 188 185 179 180 182 180 176 173 169 167 168 165
173 173 176 178 178 173 172 173 173 170 167 167 168 171 179 167 177 181 187 190 194 191 176 185 177 188 204 190 191 208 186 222 225 242 222 247 245 251 252 258 267 272 276 277 277 283 286 282 277 268 263 258 251 163 203 228 285 253 243 187 126 107 299 302 182 182 178 198 173 191 194 195 194 194 191 187 184 186 182 180 174 175 172 172 171
175 176 173 178 177 177 177 175 173 171 168 168 165 169 175 160 173 179 183 182 190 182 173 178 181 190 201 190 191 203 197 215 242 236 236 232 248 251 252 257 261 268 268 273 287 293 292 302 295 277 267 258 182 205 209 222 215 267 357 157 181 190 181 212 240 215 214 234 186 203 190 196 200 197 193 196 194 191 186 183 181 178 178 179 177
175 169 173 181 181 180 176 178 174 173 171 170 170 176 167 163 173 179 179 179 184 173 175 181 188 195 200 197 193 197 198 212 240 264 269 260 237 240 260 273 296 304 294 301 292 297 322 311 306 312 307 275 233 203 190 219 220 206 216 240 233 217 233 203 220 213 225 242 241 212 193 195 198 201 199 197 196 194 190 190 186 186 183 184 184
171 177 182 181 183 181 181 178 175 177 177 176 177 177 167 175 178 182 180 184 183 177 178 190 196 202 200 203 196 202 211 217 234 249 257 264 253 239 237 237 247 261 280 282 285 281 280 277 288 290 285 277 255 238 175 185 190 196 211 212 227 224 206 226 208 216 232 239 254 228 205 198 200 204 197 206 197 198 195 194 194 192 190 189 188
179 185 179 184 181 182 183 178 180 178 181 176 174 180 181 183 181 180 181 191 184 179 190 197 202 202 204 203 198 210 214 220 230 236 248 247 256 247 238 225 225 238 250 256 269 270 265 272 269 264 257 239 243 252 280 201 176 188 198 204 208 226 223 222 211 217 226 229 241 232 205 204 209 208 205 205 195 205 198 199 200 197 193 196 191
180 182 183 184 183 185 183 180 182 181 181 179 178 187 185 182 186 188 192 193 183 194 197 201 203 208 208 210 211 206 209 219 229 229 240 246 248 244 241 235 232 238 236 228 249 260 257 257 259 264 255 184 130 104 107 279 248 221 219 188 197 200 218 222 228 227 211 214 229 241 205 206 208 211 211 209 194 204 209 201 203 202 198 199 199
184 186 184 185 188 186 182 186 184 185 183 180 186 189 185 185 185 192 196 196 194 200 198 199 206 208 213 210 206 211 217 216 222 228 231 236 242 247 240 239 226 236 223 238 221 252 271 261 245 244 248 106 102 108 166 192 212 252 234 229 184 199 189 192 214 223 214 207 213 241 220 207 207 207 220 212 211 191 210 207 203 207 204 204 202
189 183 183 190 185 184 186 189 187 186 183 182 190 188 188 188 192 198 197 198 201 198 196 205 208 205 217 211 211 210 212 209 220 221 211 233 236 240 245 245 234 229 210 232 221 221 252 269 227 263 265 96 81 29 10 330 358 201 212 195 207 225 177 178 193 211 204 205 207 219 232 213 214 214 216 208 220 199 212 209 209 206 209 207 208
181 188 188 188 184 183 189 190 189 186 183 189 189 192 188 194 195 197 198 202 198 193 203 209 210 210 216 213 212 214 211 213 217 218 217 227 233 229 234 231 239 234 216 233 225 221 217 238 203 216 271 68 73 250 17 336 326 315 160 96 351 296 233 162 179 197 211 212 204 202 243 219 217 221 220 221 223 211 212 201 237 219 210 209 235
186 190 188 184 182 187 188 190 188 186 186 192 191 191 194 197 197 195 200 203 194 198 205 208 212 214 214 212 212 214 211 214 215 216 217 221 225 223 234 211 230 230 219 228 226 215 210 233 248 313 83 90 42 327 341 336 303 294 348 42 1 205 220 182 179 190 201 201 194 186 225 227 214 223 230 231 217 217 210 215 210 207 264 202 231
192 188 184 183 187 186 188 190 187 188 190 193 193 193 193 198 199 198 200 199 199 201 207 208 212 214 213 211 211 211 212 211 214 211 214 217 219 222 232 229 222 211 214 215 210 193 213 252 272 34 31 64 40 343 2 127 38 337 40 62 221 84 274 194 171 176 201 189 175 180 197 213 203 227 230 237 241 235 186 182 213 194 220 223 208
183 184 182 189 187 187 188 187 188 190 192 195 192 191 195 197 200 201 201 196 202 204 209 209 211 213 210 211 210 209 210 213 210 215 209 207 214 216 220 230 226 203 191 186 185 177 208 235 266 349 333 54 39 321 359 355 346 19 26 299 103 116 298 301 161 175 181 161 157 175 188 186 177 170 252 240 243 250 215 187 200 201 219 216 210
181 183 189 187 186 187 184 188 189 191 192 195 194 195 193 195 198 202 201 197 201 206 209 209 210 212 207 211 209 208 210 210 210 208 210 198 201 207 210 214 193 172 169 179 172 186 196 217 230 266 308 37 25 326 339 322 308 351 324 323 300 87 129 219 126 144 153 140 139 175 176 179 183 183 205 223 244 254 250 195 191 202 215 227 219
185 188 190 184 189 188 186 188 186 191 193 194 196 195 193 194 198 202 200 200 203 207 210 210 208 208 206 209 208 208 208 207 207 201 203 196 194 193 201 184 169 157 167 165 163 189 208 227 229 193 248 297 6 326 354 338 24 342 356 29 315 27 34 89 119 109 101 109 136 174 192 200 203 193 212 186 158 217 244 232 215 214 219 229 207
185 186 187 187 190 189 188 188 188 191 192 194 195 195 193 194 198 202 202 200 205 210 212 210 209 207 206 208 204 206 207 202 203 198 193 189 184 182 191 185 170 166 165 172 183 193 187 208 233 200 166 197 123 319 336 22 359 4 17 346 34 43 8 47 79 117 112 120 158 196 197 222 221 218 219 184 177 181 201 227 228 221 228 228 234
188 187 187 187 190 188 189 190 189 191 191 192 194 193 195 194 197 202 204 204 209 212 212 206 209 209 204 210 201 200 201 197 197 191 189 183 176 177 182 185 173 167 172 177 199 184 195 193 219 248 141 139 152 143 289 30 354 358 348 0 11 44 343 21 109 116 125 142 184 206 217 208 235 273 246 229 193 172 188 209 215 230 226 238 234
189 187 186 188 188 190 189 192 189 189 191 191 193 194 192 194 196 200 206 209 213 214 210 208 209 205 207 208 200 198 195 190 189 181 175 175 171 176 178 184 175 175 177 189 190 183 191 199 209 249 229 198 182 193 197 124 77 343 337 315 41 59 58 325 56 122 161 174 188 212 180 207 218 251 242 228 210 181 175 168 142 91 28 228 232
187 186 186 187 190 191 192 193 191 188 188 189 187 190 190 192 196 202 210 211 212 214 214 211 202 203 205 200 198 194 189 184 185 181 180 173 172 178 182 181 181 174 177 185 199 190 196 200 231 216 241 291 202 204 111 98 28 46 2 339 351 356 102 145 345 185 182 196 203 171 180 142 166 246 204 222 121 108 154 161 152 150 133 186 203
187 186 187 190 190 191 189 195 191 186 187 187 188 188 190 194 202 204 208 206 206 209 214 211 201 199 196 195 193 190 185 181 185 180 184 178 177 176 178 187 181 179 183 197 195 197 199 188 191 210 198 225 266 156 167 131 86 353 9 356 338 340 5 128 180 235 223 195 193 159 144 127 100 211 238 69 74 75 78 40 95 132 103 95 98
191 188 191 191 191 190 193 192 189 191 192 191 189 192 194 197 196 203 201 203 201 204 211 209 201 188 190 191 191 189 185 184 185 186 181 179 175 179 188 188 179 189 196 192 186 197 188 172 151 167 69 178 217 193 221 123 27 153 175 314 337 340 357 60 205 239 228 178 176 151 148 148 171 231 47 65 41 92 116 147 191 146 110 84 75
189 191 192 188 190 194 194 191 193 191 193 191 191 196 195 197 196 198 197 203 210 208 206 200 187 188 191 190 188 186 184 188 185 185 182 186 185 185 194 182 185 182 180 182 181 198 195 191 179 180 199 275 252 205 189 168 178 144 89 108 237 92 317 8 334 38 325 164 143 143 159 144 167 118 119 120 179 214 201 175 185 172 145 123 115
189 190 187 191 192 195 193 194 194 192 191 194 195 195 196 196 201 194 199 196 201 202 201 183 191 186 197 192 191 186 187 189 185 185 188 188 189 196 183 178 186 186 182 181 190 202 198 191 184 199 149 177 250 252 184 187 133 133 218 147 203 128 173 283 289 315 328 165 155 160 166 159 145 123 110 206 225 225 224 202 202 165 118 123 131
191 190 190 191 194 195 194 193 192 191 191 191 192 188 188 190 187 176 176 194 172 180 189 211 197 196 188 192 198 186 189 189 187 190 190 193 195 191 179 183 181 189 182 186 192 202 197 193 182 182 177 171 213 250 291 174 202 195 132 91 26 51 209 233 97 351 8 102 335 167 165 150 153 168 178 235 267 263 294 299 311 75 109 136 157
195 195 193 194 193 193 191 191 192 190 191 190 187 184 190 187 179 181 188 196 203 191 203 204 195 196 201 183 184 189 188 192 192 193 196 194 193 185 179 176 185 187 189 194 191 183 193 192 194 184 198 205 164 162 247 163 185 207 187 160 169 173 185 228 88 183 6 25 67 35 61 142 137 173 196 244 247 254 264 251 95 138 156 179 180
200 196 193 195 193 189 189 190 192 193 191 188 185 186 190 193 194 197 197 198 203 215 208 199 198 193 166 184 191 184 190 191 196 196 198 196 186 179 179 183 186 185 187 180 190 196 195 201 183 180 199 172 126 173 195 221 16 303 151 28 28 66 143 124 198 101 108 332 20 30 21 79 87 220 221 232 244 252 263 249 180 174 200 215 198
198 191 193 193 192 190 188 190 192 192 190 187 186 188 192 194 196 200 200 202 205 208 197 201 181 158 179 184 179 190 193 197 196 198 198 189 178 179 180 183 187 189 182 191 197 198 188 203 181 198 186 173 176 172 202 186 163 245 42 42 25 60 43 90 136 161 159 158 226 324 359 30 139 259 256 251 237 233 238 250 213 190 215 231 223
193 190 192 191 192 191 189 190 192 192 191 186 187 192 194 194 196 198 203 209 208 209 190 181 174 170 179 177 183 192 197 201 201 198 194 182 179 181 181 185 190 189 192 191 199 186 185 186 182 178 182 192 188 190 164 196 175 201 125 10 52 45 20 47 114 91 132 143 211 183 204 346 55 267 249 241 252 258 243 233 231 181 212 219 226
192 192 192 190 189 187 188 188 193 192 190 190 191 192 194 193 196 200 204 206 204 202 175 185 186 176 184 185 188 191 199 202 204 199 188 183 180 178 184 190 192 188 190 193 189 186 184 188 190 188 183 186 211 175 183 186 190 187 185 158 141 90 62 28 27 69 46 100 164 195 184 167 190 246 220 232 227 237 248 252 254 240 211 230 231
194 193 192 190 188 187 188 188 193 191 189 191 191 193 193 193 198 200 204 205 202 195 188 195 187 179 189 190 192 202 197 204 198 193 186 184 185 182 187 193 189 187 190 185 189 189 188 190 196 195 182 186 192 201 187 173 179 184 191 174 178 168 181 168 203 205 137 136 86 187 164 189 194 211 241 217 216 228 241 245 236 248 244 231 229